Weather History for San Nicolas Island, CA

Change the Weather History Date:

Friday, December 7, 2012

  Actual Average Record
Temperature  
Mean Temperature 64 °F -  
Max Temperature 73 °F 59 °F 73 °F (2006)
Min Temperature 55 °F 50 °F 43 °F (2011)
Degree Days  
Heating Degree Days 1    
Growing Degree Days 14 (Base 50)    
Moisture  
Dew Point 53 °F    
Average Humidity 65    
Maximum Humidity 98    
Minimum Humidity 38    
Precipitation  
Precipitation 0.00 in - - ()
Sea Level Pressure  
Sea Level Pressure 29.93 in    
Wind  
Wind Speed 8 mph (WNW)    
Max Wind Speed 12 mph    
Max Gust Speed -    
Visibility 7 miles    
Events      
Averages and records for this station are not official NWS values.
T = Trace of Precipitation, MM = Missing Value Source: NWS Daily Summary

Daily Weather History Graph

Daily Weather History Graph

Search for Another Location

Airport:

Trip Planner

Search our weather history database for the weather conditions in past years. The results will help you decide how hot, cold, wet, or windy it might be!

Date:

Astronomy

Dec. 07, 2012 Rise Set
Actual Time 6:48 AM PST 4:50 PM PST
Civil Twilight 6:21 AM PST 5:17 PM PST
Nautical Twilight 5:50 AM PST 5:48 PM PST
Astronomical Twilight 5:20 AM PST 6:18 PM PST
Moon 12:29 AM PST (12/7) 12:35 PM PST (12/7)
Length of Visible Light 10h 56m
Length of Day
10h 01m
Last Quarter, 37% of the Moon is Illuminated
Dec 7
Last Quarter
Dec 13
New
Dec 19
First Quarter
Dec 28
Full
Jan 4
Last Quarter

Hourly Weather History & Observations

Time (PST) Temp. Dew Point Humidity Pressure Visibility Wind Dir Wind Speed Gust Speed Precip Events Conditions
12:53 AM 69.1 °F 53.1 °F 57% 29.91 in 7.0 mi WNW 11.5 mph - N/A   Clear
1:53 AM 71.1 °F 52.0 °F 51% 29.91 in 10.0 mi West 10.4 mph - N/A   Clear
2:53 AM 70.0 °F 52.0 °F 53% 29.90 in 10.0 mi West 10.4 mph - N/A   Clear
3:53 AM 71.1 °F 52.0 °F 51% 29.90 in 10.0 mi WNW 10.4 mph - N/A   Clear
4:53 AM 70.0 °F 51.1 °F 51% 29.90 in 10.0 mi West 9.2 mph - N/A   Clear
5:53 AM 56.1 °F 55.6 °F 98% 29.92 in 7.0 mi West 9.2 mph - N/A   Clear
6:53 AM 55.0 °F 52.7 °F 92% 29.93 in 7.0 mi West 5.8 mph - N/A   Partly Cloudy
7:38 AM 73.4 °F 53.6 °F 50% 29.95 in 8.0 mi NW 4.6 mph - N/A   Scattered Clouds
7:53 AM 64.9 °F 55.0 °F 70% 29.94 in 7.0 mi WNW 3.5 mph - N/A   Scattered Clouds
8:53 AM 61.7 °F 56.1 °F 82% 29.95 in 7.0 mi Calm Calm - N/A   Partly Cloudy
9:53 AM 63.1 °F 56.8 °F 80% 29.97 in 7.0 mi West 5.8 mph - N/A   Partly Cloudy
10:53 AM 63.9 °F 53.4 °F 69% 29.97 in 7.0 mi South 6.9 mph - N/A   Partly Cloudy
11:37 AM 69.8 °F 57.2 °F 64% 29.97 in 1.0 mi North 5.8 mph - N/A   Unknown
11:44 AM 60.8 °F 57.2 °F 88% 29.97 in 1.8 mi Calm Calm - N/A   Scattered Clouds
11:53 AM 61.3 °F 56.3 °F 83% 29.95 in 2.0 mi Calm Calm - N/A   Haze
12:01 PM 60.8 °F 57.2 °F 88% 29.96 in 7.0 mi West 3.5 mph - N/A   Partly Cloudy
12:53 PM 61.3 °F 56.3 °F 83% 29.93 in 7.0 mi NNE 4.6 mph - N/A   Partly Cloudy
1:53 PM 63.9 °F 52.0 °F 65% 29.91 in 7.0 mi NW 6.9 mph - N/A   Scattered Clouds
2:53 PM 64.9 °F 53.6 °F 67% 29.91 in 7.0 mi NNW 5.8 mph - N/A   Partly Cloudy
3:38 PM 62.6 °F 53.6 °F 72% 29.92 in 0.2 mi NW 6.9 mph - N/A   Mostly Cloudy
3:53 PM 62.1 °F 54.1 °F 75% 29.91 in 0.2 mi WNW 8.1 mph - N/A   Mostly Cloudy
4:21 PM 62.6 °F 53.6 °F 72% 29.92 in 4.0 mi WNW 9.2 mph - N/A   Scattered Clouds
4:53 PM 62.1 °F 54.1 °F 75% 29.91 in 7.0 mi WNW 10.4 mph - N/A   Scattered Clouds
5:53 PM 73.0 °F 50.0 °F 44% 29.91 in 10.0 mi West 9.2 mph - N/A   Clear
6:53 PM 73.9 °F 46.9 °F 38% 29.92 in 10.0 mi WNW 6.9 mph - N/A   Clear
7:53 PM 71.1 °F 46.9 °F 42% 29.93 in 10.0 mi WNW 8.1 mph - N/A   Clear
8:53 PM 72.0 °F 46.9 °F 41% 29.94 in 10.0 mi WNW 8.1 mph - N/A   Clear
9:53 PM 70.0 °F 48.0 °F 46% 29.93 in 10.0 mi WNW 9.2 mph - N/A   Clear
10:53 PM 71.1 °F 48.0 °F 44% 29.92 in 10.0 mi West 11.5 mph - N/A   Clear
11:53 PM 68.0 °F 46.0 °F 45% 29.92 in 10.0 mi West 6.9 mph - N/A   Clear